Total_Precipitation_Accumulation
2.73 2.31 3.75 3.96 3.61 3.26 3.03 3.10 3.27 3.23 3.36 3.39 3.29 2.98 2.85 2.89 3.09 3.11 2.84 2.55 2.47 2.54 2.85 3.00 3.00 3.10 2.93 2.86 2.88 3.00 3.17 3.35 3.37 2.99 2.81 2.71 2.59 2.60 2.70 2.84 3.06 3.40 3.02
1.94 1.97 3.33 3.79 3.64 3.39 3.26 3.22 3.29 3.32 3.31 3.26 3.12 3.00 2.71 2.57 2.84 3.22 2.98 2.80 2.56 2.47 2.62 2.83 2.98 3.16 3.11 3.05 3.19 3.22 3.25 3.31 3.41 3.21 3.14 3.13 3.00 2.86 2.59 2.65 3.08 3.40 2.89
1.68 1.84 2.65 3.67 3.58 3.27 3.30 3.25 3.17 3.15 3.05 2.93 2.86 2.69 2.65 2.55 2.60 2.93 2.84 2.82 2.69 2.55 2.62 2.81 3.07 3.30 3.33 3.32 3.45 3.45 3.34 3.43 3.47 3.26 3.45 3.78 3.32 3.22 2.97 2.78 2.76 2.84 2.81
1.38 1.60 2.20 3.14 3.04 2.96 2.99 2.79 2.70 2.69 2.63 2.65 2.68 2.49 2.47 2.51 2.68 2.99 2.92 2.71 2.56 2.45 2.55 2.82 3.13 3.24 3.31 3.40 3.43 3.58 3.50 3.60 3.53 3.12 3.20 3.59 3.51 3.42 3.37 3.15 2.85 2.79 3.03
1.20 1.53 2.30 3.00 2.81 2.81 2.78 2.51 2.51 2.43 2.39 2.43 2.52 2.45 2.53 2.55 2.66 2.91 2.97 2.88 2.79 2.78 2.80 3.01 3.10 3.14 3.31 3.38 3.45 3.61 3.68 3.65 3.42 2.81 2.80 3.26 3.98 3.85 3.43 3.32 3.13 3.05 3.20
1.26 1.42 2.01 2.67 2.57 2.50 2.45 2.49 2.46 2.33 2.29 2.27 2.33 2.41 2.48 2.56 2.60 2.79 2.93 2.79 2.68 2.94 3.20 3.37 3.32 3.30 3.40 3.46 3.38 3.56 3.77 3.49 2.90 2.72 2.89 3.30 3.82 3.81 3.33 3.09 3.16 3.31 3.45
1.13 1.19 1.60 2.34 2.33 2.26 2.29 2.38 2.44 2.32 2.33 2.23 2.25 2.46 2.53 2.52 2.59 2.77 2.90 2.80 2.68 2.82 3.28 3.53 3.56 3.50 3.36 3.35 3.48 3.46 3.55 3.18 2.67 2.72 2.88 3.25 3.43 3.63 3.31 3.13 3.29 3.42 3.64
1.24 1.16 1.36 2.07 2.23 2.13 2.25 2.27 2.32 2.40 2.37 2.24 2.26 2.33 2.46 2.57 2.54 2.65 2.69 2.74 2.67 2.72 2.98 3.13 3.14 3.31 3.18 3.17 3.29 3.20 3.17 2.71 2.26 2.39 2.67 3.16 3.65 3.69 3.18 2.96 3.03 3.29 3.52
1.50 1.44 1.52 1.74 1.92 2.09 2.21 2.22 2.34 2.46 2.41 2.25 2.15 2.17 2.23 2.34 2.30 2.29 2.33 2.54 2.62 2.77 2.84 2.88 3.05 3.21 3.20 3.19 3.10 3.16 3.11 2.57 2.19 2.38 2.33 3.12 3.98 3.92 3.42 3.04 2.88 3.07 3.34
1.43 1.42 1.45 1.60 1.68 1.73 1.88 2.24 2.52 2.88 2.75 2.31 2.02 1.89 2.03 2.03 1.97 2.08 2.16 2.49 2.77 2.97 3.20 3.24 3.37 3.22 3.17 3.02 2.80 2.90 2.83 2.26 2.23 2.22 2.56 3.22 4.23 4.09 3.59 3.13 2.82 2.74 2.88
1.11 1.16 1.26 1.36 1.42 1.49 1.50 1.78 2.31 2.78 2.77 2.30 1.91 1.85 1.77 1.54 1.53 1.70 1.94 2.43 2.80 3.07 3.41 3.49 3.38 3.15 2.86 2.67 2.52 2.44 2.15 1.94 2.17 2.31 2.74 3.50 4.12 4.06 3.50 3.03 2.74 2.71 2.61
0.96 0.93 0.93 0.94 1.05 1.12 1.13 1.47 1.79 1.84 2.05 1.79 1.72 1.64 1.60 1.60 1.62 1.39 1.58 2.10 2.49 2.77 3.06 3.28 3.19 2.75 2.14 1.92 2.03 2.01 1.70 1.68 1.83 2.08 2.76 3.75 4.33 4.14 3.48 3.02 2.79 2.81 2.62
0.85 0.84 0.76 0.75 0.82 0.97 1.12 1.28 1.49 1.65 1.80 1.76 1.70 1.72 1.82 1.79 1.49 1.34 1.44 1.61 1.89 2.19 2.29 2.49 2.48 2.03 1.69 1.60 1.74 1.72 1.59 1.57 1.76 2.00 2.77 3.77 4.39 4.28 3.56 3.11 2.92 2.92 2.87
0.69 0.78 0.74 0.61 0.63 0.73 0.81 0.98 1.15 1.36 1.56 1.61 1.44 1.42 1.59 1.66 1.50 1.38 1.54 1.62 1.80 2.05 2.18 2.24 2.13 1.85 1.51 1.40 1.53 1.56 1.45 1.55 1.70 1.84 2.40 3.09 3.84 4.17 3.89 3.39 3.18 3.00 3.01
0.71 0.77 0.80 0.70 0.66 0.69 0.75 0.81 0.83 1.13 1.32 1.47 1.54 1.36 1.48 1.56 1.52 1.41 1.36 1.54 1.60 1.82 1.93 2.07 2.08 1.93 1.69 1.47 1.45 1.45 1.54 1.54 1.53 1.55 1.90 2.34 2.86 3.60 3.92 3.76 3.53 3.33 3.28
0.67 0.76 0.77 0.78 0.75 0.74 0.76 0.76 0.75 0.82 0.91 1.02 0.99 0.99 1.16 1.31 1.35 1.37 1.27 1.35 1.49 1.75 2.04 2.16 1.99 1.91 1.75 1.66 1.66 1.61 1.61 1.56 1.52 1.43 1.62 1.87 1.96 2.35 2.97 3.55 3.76 3.63 3.52
0.64 0.69 0.76 0.81 0.86 0.86 0.86 0.91 0.89 0.83 0.85 0.85 0.82 0.83 0.92 1.05 1.15 1.25 1.31 1.32 1.40 1.70 2.03 2.26 2.13 2.01 1.81 1.77 1.76 1.71 1.64 1.61 1.52 1.45 1.57 1.76 1.64 1.67 2.16 2.91 3.59 3.79 3.59
0.66 0.60 0.65 0.69 0.77 0.80 0.85 0.90 0.99 0.98 0.97 0.96 0.98 0.93 0.89 1.05 1.16 1.26 1.37 1.32 1.36 1.63 1.94 2.22 2.28 2.27 2.18 2.08 1.97 1.84 1.74 1.87 1.70 1.58 1.65 1.80 1.90 1.74 1.82 2.25 2.83 3.35 3.52
0.62 0.53 0.52 0.58 0.62 0.64 0.66 0.74 0.87 0.94 1.00 1.08 1.08 1.09 1.11 1.18 1.20 1.31 1.53 1.56 1.57 1.76 1.88 1.92 2.10 2.16 2.25 2.20 1.95 1.91 1.82 1.94 2.02 1.92 1.99 2.09 2.11 2.02 1.89 1.87 2.11 2.39 2.99
0.56 0.54 0.53 0.55 0.55 0.52 0.53 0.62 0.77 0.84 0.90 1.09 1.16 1.20 1.47 1.62 1.42 1.38 1.56 1.62 1.68 1.94 2.00 2.04 2.29 2.30 2.23 2.28 2.04 1.92 1.90 1.90 1.94 2.15 2.31 2.32 2.29 2.08 2.03 1.90 2.02 1.99 2.42
0.39 0.37 0.45 0.48 0.54 0.54 0.46 0.49 0.65 0.78 0.91 1.06 1.25 1.25 1.47 1.60 1.51 1.55 1.62 1.69 1.73 1.86 1.93 2.04 2.40 2.47 2.31 2.16 2.35 2.35 2.25 2.05 1.96 2.05 2.20 2.43 2.51 2.29 2.18 2.19 2.11 2.02 1.97
0.38 0.31 0.33 0.37 0.46 0.56 0.57 0.60 0.74 0.94 1.06 1.18 1.35 1.38 1.46 1.47 1.45 1.40 1.64 1.81 1.79 1.95 2.00 2.16 2.46 2.73 2.47 2.27 2.65 3.14 2.88 2.58 2.21 1.98 2.03 2.10 2.35 2.35 2.19 2.06 1.98 1.97 1.93
0.31 0.27 0.31 0.40 0.52 0.68 0.84 1.06 1.33 1.64 1.81 1.70 1.58 1.67 1.75 1.79 1.71 1.66 1.78 1.96 1.94 2.01 2.13 2.17 2.26 2.78 2.95 2.68 2.60 3.22 3.10 2.84 2.78 2.23 1.82 1.73 2.02 2.23 2.25 2.11 2.02 2.07 2.08
0.35 0.40 0.50 0.66 0.80 0.95 1.13 1.33 1.62 1.90 2.11 2.12 2.17 2.22 2.17 2.09 1.97 1.84 1.89 2.00 2.05 2.15 2.13 1.95 2.10 2.61 3.14 3.19 2.93 2.69 2.54 2.47 2.64 2.56 2.00 1.65 1.72 1.92 2.16 2.07 2.07 2.15 2.19
0.52 0.65 0.79 1.08 1.26 1.34 1.36 1.44 1.66 1.77 1.86 1.98 2.14 2.20 2.19 2.12 2.01 1.86 1.83 2.00 2.11 2.19 2.17 2.21 2.34 2.64 2.97 3.27 3.23 2.94 2.66 2.41 1.99 2.16 2.21 1.99 1.70 1.61 1.72 1.88 2.05 2.12 2.16
0.84 1.09 1.23 1.40 1.62 1.55 1.42 1.39 1.50 1.64 1.73 1.85 2.02 2.08 2.02 1.90 1.87 1.83 1.84 1.90 1.92 2.00 2.10 2.25 2.49 2.63 2.81 3.04 3.12 2.79 2.64 2.55 2.31 2.12 1.95 2.04 1.99 1.69 1.54 1.56 1.69 1.89 1.99